QPF
0.00 0.01 0.02 0.01 0.01 0.00 0.00 0.00 0.00 0.00 0.00 0.00 0.00 0.00 0.00 0.00 0.00 0.00 0.00 0.00 0.00 0.00 0.00 0.00 0.00 0.00 0.00 0.00 0.00 0.00 0.00 0.00 0.00 0.00 0.00 0.00 0.00 0.00 0.00 0.00 0.00 0.00 0.00 0.00 0.00 0.00 0.00 0.00 0.00
0.00 0.01 0.02 0.01 0.00 0.00 0.00 0.00 0.00 0.00 0.00 0.00 0.00 0.00 0.00 0.00 0.00 0.00 0.00 0.00 0.00 0.00 0.00 0.00 0.00 0.00 0.00 0.00 0.00 0.00 0.00 0.00 0.00 0.00 0.00 0.00 0.00 0.00 0.00 0.00 0.00 0.00 0.00 0.00 0.00 0.00 0.00 0.00 0.00
0.00 0.01 0.01 0.01 0.00 0.00 0.00 0.00 0.00 0.00 0.00 0.00 0.00 0.00 0.00 0.00 0.00 0.00 0.00 0.00 0.00 0.00 0.00 0.00 0.00 0.00 0.00 0.00 0.00 0.00 0.00 0.00 0.00 0.00 0.00 0.00 0.00 0.00 0.00 0.00 0.00 0.00 0.00 0.00 0.00 0.00 0.00 0.00 0.00
0.00 0.00 0.00 0.00 0.01 0.01 0.00 0.00 0.00 0.00 0.00 0.00 0.00 0.00 0.00 0.00 0.00 0.00 0.00 0.00 0.00 0.00 0.00 0.00 0.00 0.00 0.00 0.00 0.00 0.00 0.00 0.00 0.00 0.00 0.00 0.00 0.00 0.00 0.00 0.00 0.00 0.00 0.00 0.00 0.00 0.00 0.00 0.00 0.00
0.00 0.00 0.00 0.00 0.01 0.01 0.01 0.01 0.00 0.00 0.00 0.00 0.00 0.00 0.00 0.00 0.00 0.00 0.00 0.00 0.00 0.00 0.00 0.00 0.00 0.00 0.00 0.00 0.00 0.00 0.00 0.00 0.00 0.00 0.00 0.00 0.00 0.00 0.00 0.00 0.00 0.00 0.00 0.00 0.00 0.00 0.00 0.00 0.00
0.00 0.00 0.00 0.00 0.00 0.02 0.02 0.01 0.01 0.00 0.00 0.00 0.00 0.00 0.00 0.00 0.00 0.00 0.00 0.00 0.00 0.00 0.00 0.00 0.00 0.00 0.00 0.00 0.00 0.00 0.00 0.00 0.00 0.00 0.00 0.00 0.00 0.00 0.00 0.00 0.00 0.00 0.00 0.00 0.00 0.00 0.00 0.00 0.00
0.00 0.00 0.00 0.00 0.00 0.01 0.01 0.01 0.01 0.00 0.00 0.00 0.00 0.00 0.00 0.00 0.00 0.00 0.00 0.00 0.00 0.00 0.00 0.00 0.00 0.00 0.00 0.00 0.00 0.00 0.00 0.00 0.00 0.00 0.00 0.00 0.00 0.00 0.00 0.00 0.00 0.00 0.00 0.00 0.00 0.00 0.00 0.00 0.00
0.00 0.00 0.00 0.00 0.00 0.00 0.00 0.01 0.01 0.00 0.00 0.00 0.00 0.00 0.00 0.00 0.00 0.00 0.00 0.00 0.00 0.00 0.00 0.00 0.00 0.00 0.00 0.00 0.00 0.00 0.00 0.00 0.00 0.00 0.00 0.00 0.00 0.00 0.00 0.00 0.00 0.00 0.00 0.00 0.00 0.00 0.00 0.00 0.00
0.00 0.00 0.00 0.00 0.00 0.00 0.00 0.00 0.00 0.00 0.00 0.00 0.00 0.00 0.00 0.00 0.00 0.00 0.00 0.00 0.00 0.00 0.00 0.00 0.00 0.00 0.00 0.00 0.00 0.00 0.00 0.00 0.00 0.00 0.00 0.00 0.00 0.00 0.00 0.00 0.00 0.00 0.00 0.00 0.00 0.00 0.00 0.00 0.00
0.00 0.00 0.00 0.00 0.00 0.00 0.00 0.00 0.00 0.00 0.00 0.00 0.00 0.00 0.00 0.00 0.00 0.00 0.00 0.00 0.00 0.00 0.00 0.00 0.00 0.00 0.00 0.00 0.00 0.00 0.00 0.00 0.00 0.00 0.00 0.00 0.00 0.00 0.00 0.00 0.00 0.00 0.00 0.00 0.00 0.01 0.01 0.01 0.00
0.00 0.00 0.00 0.00 0.00 0.00 0.00 0.00 0.00 0.00 0.00 0.00 0.00 0.00 0.00 0.00 0.00 0.00 0.00 0.00 0.00 0.00 0.00 0.00 0.00 0.00 0.00 0.00 0.00 0.00 0.00 0.00 0.00 0.00 0.00 0.00 0.00 0.00 0.00 0.00 0.00 0.00 0.00 0.00 0.01 0.02 0.02 0.02 0.01
0.00 0.00 0.00 0.00 0.00 0.00 0.00 0.00 0.00 0.00 0.00 0.00 0.00 0.00 0.00 0.00 0.00 0.00 0.00 0.00 0.00 0.00 0.00 0.00 0.00 0.00 0.00 0.00 0.00 0.00 0.00 0.00 0.00 0.00 0.00 0.00 0.00 0.00 0.00 0.00 0.00 0.00 0.00 0.00 0.01 0.02 0.03 0.03 0.03
0.00 0.00 0.00 0.00 0.00 0.00 0.00 0.00 0.00 0.00 0.00 0.00 0.00 0.00 0.00 0.00 0.00 0.00 0.00 0.00 0.00 0.00 0.01 0.01 0.01 0.02 0.02 0.01 0.00 0.00 0.00 0.00 0.00 0.00 0.00 0.00 0.00 0.00 0.00 0.00 0.01 0.01 0.01 0.01 0.03 0.05 0.06 0.06 0.06
0.00 0.00 0.00 0.00 0.00 0.00 0.00 0.00 0.00 0.00 0.00 0.00 0.00 0.00 0.00 0.00 0.00 0.00 0.00 0.00 0.00 0.00 0.01 0.03 0.05 0.08 0.08 0.07 0.05 0.03 0.02 0.02 0.02 0.03 0.04 0.03 0.03 0.03 0.04 0.03 0.03 0.04 0.05 0.06 0.10 0.13 0.15 0.14 0.12
0.00 0.00 0.00 0.00 0.00 0.00 0.00 0.00 0.00 0.00 0.00 0.00 0.00 0.00 0.00 0.00 0.00 0.00 0.00 0.00 0.01 0.02 0.04 0.07 0.13 0.18 0.19 0.16 0.13 0.11 0.10 0.09 0.08 0.08 0.10 0.11 0.11 0.12 0.13 0.10 0.09 0.14 0.20 0.21 0.24 0.26 0.24 0.20 0.18
0.00 0.00 0.00 0.00 0.00 0.00 0.00 0.00 0.00 0.00 0.00 0.00 0.00 0.00 0.00 0.00 0.00 0.01 0.01 0.01 0.02 0.04 0.06 0.12 0.19 0.25 0.26 0.27 0.28 0.25 0.23 0.20 0.17 0.16 0.16 0.18 0.20 0.24 0.25 0.19 0.19 0.32 0.39 0.39 0.39 0.37 0.31 0.26 0.24
0.00 0.00 0.00 0.00 0.00 0.00 0.00 0.00 0.00 0.00 0.00 0.00 0.00 0.00 0.00 0.00 0.00 0.01 0.01 0.02 0.04 0.06 0.09 0.15 0.23 0.24 0.28 0.34 0.37 0.34 0.29 0.24 0.23 0.22 0.21 0.22 0.26 0.30 0.33 0.27 0.31 0.45 0.53 0.50 0.48 0.44 0.39 0.32 0.30
0.00 0.00 0.00 0.00 0.00 0.00 0.00 0.00 0.00 0.00 0.00 0.00 0.00 0.00 0.00 0.00 0.01 0.02 0.03 0.04 0.05 0.09 0.10 0.13 0.19 0.22 0.24 0.28 0.31 0.26 0.20 0.20 0.23 0.24 0.21 0.22 0.25 0.32 0.41 0.32 0.33 0.45 0.52 0.50 0.48 0.45 0.38 0.33 0.32
0.00 0.00 0.00 0.00 0.00 0.00 0.00 0.00 0.00 0.00 0.00 0.00 0.00 0.00 0.01 0.01 0.03 0.04 0.05 0.05 0.07 0.08 0.08 0.09 0.10 0.11 0.11 0.12 0.14 0.14 0.13 0.15 0.17 0.19 0.18 0.18 0.19 0.21 0.29 0.29 0.34 0.41 0.41 0.38 0.41 0.43 0.36 0.29 0.33
0.00 0.00 0.00 0.00 0.00 0.00 0.00 0.00 0.00 0.00 0.00 0.00 0.01 0.01 0.01 0.02 0.04 0.05 0.05 0.04 0.04 0.03 0.03 0.03 0.02 0.03 0.03 0.04 0.07 0.09 0.10 0.11 0.09 0.08 0.10 0.14 0.17 0.15 0.17 0.19 0.22 0.30 0.34 0.31 0.33 0.36 0.33 0.27 0.32
0.00 0.00 0.00 0.00 0.00 0.00 0.00 0.00 0.00 0.00 0.01 0.01 0.01 0.02 0.03 0.04 0.04 0.04 0.03 0.02 0.01 0.01 0.00 0.00 0.00 0.00 0.00 0.01 0.01 0.02 0.03 0.02 0.01 0.02 0.03 0.06 0.08 0.08 0.09 0.11 0.15 0.18 0.24 0.22 0.24 0.30 0.32 0.28 0.29
0.00 0.00 0.00 0.00 0.00 0.00 0.00 0.00 0.00 0.00 0.01 0.02 0.02 0.02 0.03 0.04 0.03 0.02 0.02 0.01 0.00 0.00 0.00 0.00 0.00 0.00 0.00 0.00 0.00 0.00 0.00 0.00 0.00 0.00 0.00 0.01 0.01 0.02 0.03 0.05 0.08 0.11 0.14 0.13 0.16 0.21 0.23 0.24 0.23
0.00 0.00 0.00 0.00 0.00 0.00 0.00 0.00 0.00 0.00 0.01 0.02 0.02 0.03 0.03 0.03 0.02 0.01 0.01 0.00 0.00 0.00 0.00 0.00 0.00 0.00 0.00 0.00 0.00 0.00 0.00 0.00 0.00 0.00 0.00 0.00 0.00 0.00 0.01 0.01 0.02 0.04 0.04 0.05 0.07 0.08 0.10 0.13 0.14
0.00 0.00 0.00 0.00 0.00 0.00 0.00 0.00 0.00 0.00 0.00 0.01 0.01 0.02 0.02 0.01 0.00 0.00 0.00 0.00 0.00 0.00 0.00 0.00 0.00 0.00 0.00 0.00 0.00 0.00 0.00 0.00 0.00 0.00 0.00 0.00 0.00 0.00 0.00 0.00 0.00 0.01 0.01 0.01 0.02 0.03 0.04 0.05 0.05
0.00 0.00 0.00 0.00 0.00 0.00 0.00 0.00 0.00 0.00 0.00 0.00 0.00 0.01 0.01 0.00 0.00 0.00 0.00 0.00 0.00 0.00 0.00 0.00 0.00 0.00 0.00 0.00 0.00 0.00 0.00 0.00 0.00 0.00 0.00 0.00 0.00 0.00 0.00 0.00 0.00 0.00 0.00 0.01 0.01 0.02 0.02 0.03 0.03
0.00 0.00 0.00 0.00 0.00 0.00 0.00 0.00 0.00 0.00 0.00 0.00 0.00 0.00 0.00 0.00 0.00 0.00 0.00 0.00 0.00 0.00 0.00 0.00 0.00 0.00 0.00 0.00 0.00 0.00 0.00 0.00 0.00 0.00 0.00 0.00 0.00 0.00 0.00 0.00 0.00 0.00 0.00 0.01 0.01 0.02 0.02 0.02 0.03
0.01 0.00 0.00 0.00 0.00 0.00 0.00 0.00 0.00 0.00 0.00 0.00 0.00 0.00 0.00 0.00 0.00 0.00 0.00 0.00 0.00 0.00 0.00 0.00 0.00 0.00 0.00 0.00 0.00 0.00 0.00 0.00 0.00 0.00 0.00 0.00 0.00 0.00 0.00 0.00 0.00 0.00 0.01 0.01 0.02 0.03 0.03 0.04 0.04
0.00 0.00 0.00 0.00 0.00 0.00 0.00 0.00 0.00 0.00 0.00 0.00 0.00 0.00 0.00 0.00 0.00 0.00 0.00 0.00 0.00 0.00 0.00 0.00 0.00 0.00 0.00 0.00 0.00 0.00 0.00 0.00 0.00 0.00 0.00 0.00 0.00 0.00 0.00 0.00 0.00 0.00 0.01 0.02 0.03 0.03 0.04 0.06 0.07
0.00 0.00 0.00 0.00 0.00 0.00 0.00 0.00 0.00 0.00 0.00 0.00 0.00 0.00 0.00 0.00 0.00 0.00 0.00 0.00 0.00 0.00 0.00 0.00 0.00 0.00 0.00 0.00 0.00 0.00 0.00 0.00 0.00 0.00 0.00 0.00 0.00 0.00 0.00 0.00 0.00 0.00 0.01 0.02 0.04 0.05 0.07 0.10 0.13
0.00 0.00 0.00 0.00 0.00 0.00 0.00 0.00 0.00 0.00 0.00 0.00 0.00 0.00 0.00 0.00 0.00 0.00 0.00 0.00 0.00 0.00 0.00 0.00 0.00 0.00 0.00 0.00 0.00 0.00 0.00 0.00 0.00 0.00 0.00 0.00 0.00 0.00 0.00 0.00 0.00 0.00 0.01 0.02 0.03 0.05 0.09 0.13 0.16
MSLP
1009.53 1010.59 1011.71 1012.70 1013.37 1013.64 1013.48 1012.98 1012.29 1011.58 1011.03 1010.72 1010.70 1010.90 1011.20 1011.49 1011.64 1011.60 1011.37 1011.04 1010.72 1010.51 1010.51 1010.73 1011.16 1011.71 1012.27 1012.75 1013.08 1013.26 1013.31 1013.30 1013.30 1013.38 1013.55 1013.82 1014.13 1014.45 1014.72 1014.90 1014.99 1015.02 1015.02 1015.03 1015.08 1015.16 1015.28 1015.41 1015.51
1009.97 1011.17 1012.35 1013.30 1013.85 1013.93 1013.53 1012.78 1011.83 1010.91 1010.19 1009.77 1009.69 1009.88 1010.21 1010.56 1010.80 1010.86 1010.76 1010.57 1010.37 1010.29 1010.40 1010.71 1011.21 1011.80 1012.38 1012.87 1013.22 1013.41 1013.48 1013.49 1013.52 1013.62 1013.80 1014.06 1014.35 1014.63 1014.84 1014.97 1015.02 1015.02 1015.01 1015.02 1015.08 1015.19 1015.33 1015.48 1015.59
1010.51 1011.80 1012.98 1013.85 1014.25 1014.13 1013.52 1012.55 1011.42 1010.36 1009.54 1009.07 1008.97 1009.17 1009.54 1009.93 1010.24 1010.38 1010.37 1010.26 1010.17 1010.17 1010.36 1010.73 1011.26 1011.87 1012.46 1012.95 1013.30 1013.50 1013.59 1013.63 1013.69 1013.81 1014.00 1014.24 1014.50 1014.73 1014.89 1014.96 1014.97 1014.95 1014.93 1014.95 1015.04 1015.18 1015.34 1015.51 1015.63
1011.10 1012.41 1013.53 1014.28 1014.52 1014.22 1013.43 1012.32 1011.09 1009.97 1009.13 1008.67 1008.59 1008.82 1009.23 1009.66 1010.00 1010.18 1010.22 1010.16 1010.12 1010.17 1010.39 1010.78 1011.32 1011.92 1012.49 1012.97 1013.31 1013.51 1013.62 1013.68 1013.77 1013.91 1014.10 1014.34 1014.58 1014.76 1014.88 1014.91 1014.89 1014.85 1014.83 1014.87 1014.98 1015.14 1015.33 1015.51 1015.65
1011.67 1012.93 1013.95 1014.55 1014.63 1014.17 1013.26 1012.07 1010.82 1009.72 1008.93 1008.54 1008.53 1008.81 1009.25 1009.70 1010.06 1010.24 1010.29 1010.25 1010.22 1010.28 1010.50 1010.88 1011.39 1011.95 1012.48 1012.92 1013.24 1013.43 1013.55 1013.63 1013.74 1013.90 1014.11 1014.35 1014.57 1014.74 1014.83 1014.84 1014.81 1014.76 1014.75 1014.81 1014.93 1015.11 1015.31 1015.50 1015.63
1012.17 1013.32 1014.18 1014.61 1014.52 1013.93 1012.96 1011.77 1010.57 1009.56 1008.89 1008.61 1008.69 1009.03 1009.50 1009.96 1010.31 1010.48 1010.52 1010.47 1010.43 1010.48 1010.68 1011.02 1011.48 1011.98 1012.45 1012.83 1013.11 1013.28 1013.39 1013.49 1013.62 1013.80 1014.03 1014.28 1014.51 1014.67 1014.76 1014.77 1014.73 1014.70 1014.70 1014.76 1014.89 1015.07 1015.27 1015.44 1015.57
1012.52 1013.51 1014.18 1014.42 1014.19 1013.51 1012.51 1011.37 1010.27 1009.41 1008.88 1008.74 1008.92 1009.33 1009.83 1010.29 1010.62 1010.78 1010.80 1010.74 1010.69 1010.73 1010.90 1011.20 1011.60 1012.02 1012.42 1012.73 1012.95 1013.09 1013.18 1013.28 1013.43 1013.64 1013.89 1014.16 1014.40 1014.58 1014.67 1014.69 1014.67 1014.64 1014.65 1014.71 1014.83 1015.00 1015.18 1015.33 1015.42
1012.71 1013.51 1013.97 1014.02 1013.64 1012.90 1011.91 1010.85 1009.89 1009.18 1008.81 1008.80 1009.08 1009.55 1010.07 1010.54 1010.86 1011.02 1011.03 1010.98 1010.94 1010.98 1011.13 1011.40 1011.74 1012.10 1012.41 1012.66 1012.81 1012.91 1012.98 1013.07 1013.22 1013.44 1013.72 1014.00 1014.26 1014.46 1014.57 1014.60 1014.59 1014.57 1014.57 1014.62 1014.73 1014.87 1015.01 1015.13 1015.19
1012.75 1013.33 1013.58 1013.45 1012.95 1012.16 1011.20 1010.23 1009.40 1008.85 1008.62 1008.72 1009.08 1009.59 1010.14 1010.61 1010.94 1011.11 1011.15 1011.13 1011.13 1011.19 1011.34 1011.59 1011.89 1012.19 1012.45 1012.62 1012.72 1012.77 1012.81 1012.89 1013.03 1013.26 1013.54 1013.83 1014.11 1014.31 1014.44 1014.48 1014.47 1014.45 1014.44 1014.47 1014.55 1014.66 1014.77 1014.84 1014.87
1012.67 1013.03 1013.08 1012.79 1012.19 1011.37 1010.45 1009.57 1008.86 1008.43 1008.31 1008.49 1008.90 1009.44 1009.99 1010.46 1010.81 1011.01 1011.11 1011.15 1011.21 1011.32 1011.50 1011.76 1012.04 1012.30 1012.51 1012.63 1012.68 1012.69 1012.70 1012.75 1012.89 1013.10 1013.37 1013.66 1013.93 1014.14 1014.26 1014.30 1014.29 1014.25 1014.23 1014.24 1014.29 1014.36 1014.44 1014.49 1014.49
1012.53 1012.70 1012.56 1012.14 1011.46 1010.63 1009.75 1008.95 1008.34 1008.00 1007.95 1008.17 1008.59 1009.12 1009.66 1010.14 1010.51 1010.76 1010.92 1011.04 1011.17 1011.35 1011.58 1011.86 1012.14 1012.38 1012.56 1012.65 1012.67 1012.65 1012.64 1012.67 1012.78 1012.96 1013.21 1013.48 1013.72 1013.91 1014.02 1014.05 1014.02 1013.97 1013.92 1013.91 1013.94 1013.99 1014.05 1014.08 1014.08
1012.41 1012.40 1012.13 1011.60 1010.88 1010.05 1009.21 1008.48 1007.94 1007.65 1007.63 1007.85 1008.25 1008.75 1009.27 1009.74 1010.13 1010.42 1010.64 1010.83 1011.04 1011.27 1011.55 1011.86 1012.15 1012.40 1012.57 1012.65 1012.67 1012.63 1012.60 1012.61 1012.69 1012.84 1013.04 1013.27 1013.47 1013.62 1013.70 1013.71 1013.66 1013.59 1013.53 1013.50 1013.52 1013.56 1013.62 1013.66 1013.67
1012.36 1012.23 1011.84 1011.25 1010.52 1009.71 1008.93 1008.25 1007.76 1007.50 1007.47 1007.66 1008.01 1008.45 1008.93 1009.37 1009.76 1010.07 1010.34 1010.58 1010.84 1011.11 1011.43 1011.75 1012.06 1012.31 1012.50 1012.59 1012.61 1012.59 1012.55 1012.54 1012.59 1012.69 1012.84 1013.01 1013.16 1013.27 1013.31 1013.28 1013.21 1013.13 1013.06 1013.03 1013.04 1013.09 1013.17 1013.24 1013.28
1012.43 1012.20 1011.76 1011.15 1010.44 1009.68 1008.96 1008.35 1007.89 1007.63 1007.57 1007.70 1007.98 1008.35 1008.76 1009.17 1009.52 1009.83 1010.11 1010.36 1010.62 1010.90 1011.21 1011.54 1011.85 1012.11 1012.31 1012.43 1012.48 1012.48 1012.45 1012.44 1012.45 1012.51 1012.60 1012.70 1012.79 1012.84 1012.83 1012.78 1012.69 1012.60 1012.53 1012.50 1012.53 1012.60 1012.70 1012.81 1012.89
1012.61 1012.33 1011.87 1011.29 1010.63 1009.95 1009.31 1008.75 1008.33 1008.06 1007.97 1008.03 1008.23 1008.52 1008.85 1009.19 1009.50 1009.77 1010.01 1010.23 1010.45 1010.69 1010.96 1011.25 1011.54 1011.81 1012.02 1012.18 1012.27 1012.30 1012.30 1012.28 1012.27 1012.28 1012.31 1012.34 1012.36 1012.35 1012.30 1012.22 1012.12 1012.02 1011.95 1011.94 1011.98 1012.08 1012.22 1012.38 1012.51
1012.87 1012.56 1012.13 1011.62 1011.05 1010.48 1009.93 1009.44 1009.04 1008.77 1008.62 1008.62 1008.73 1008.93 1009.18 1009.44 1009.69 1009.89 1010.07 1010.21 1010.36 1010.52 1010.72 1010.94 1011.19 1011.44 1011.67 1011.86 1011.99 1012.06 1012.09 1012.08 1012.05 1012.02 1011.98 1011.95 1011.90 1011.83 1011.74 1011.63 1011.51 1011.41 1011.35 1011.35 1011.41 1011.54 1011.71 1011.91 1012.08
1013.12 1012.85 1012.49 1012.08 1011.64 1011.19 1010.75 1010.32 1009.95 1009.66 1009.47 1009.39 1009.41 1009.53 1009.69 1009.88 1010.05 1010.19 1010.28 1010.33 1010.37 1010.43 1010.52 1010.66 1010.85 1011.08 1011.31 1011.52 1011.69 1011.81 1011.86 1011.86 1011.82 1011.75 1011.66 1011.55 1011.44 1011.32 1011.18 1011.04 1010.91 1010.80 1010.74 1010.74 1010.82 1010.96 1011.16 1011.39 1011.60
1013.33 1013.12 1012.88 1012.61 1012.32 1012.01 1011.67 1011.31 1010.95 1010.63 1010.38 1010.22 1010.16 1010.19 1010.28 1010.40 1010.51 1010.57 1010.58 1010.54 1010.48 1010.42 1010.41 1010.45 1010.58 1010.76 1010.99 1011.22 1011.42 1011.58 1011.66 1011.68 1011.62 1011.51 1011.37 1011.21 1011.03 1010.85 1010.67 1010.50 1010.34 1010.22 1010.15 1010.14 1010.21 1010.36 1010.57 1010.81 1011.05
1013.43 1013.34 1013.25 1013.16 1013.03 1012.86 1012.61 1012.30 1011.94 1011.57 1011.24 1010.99 1010.84 1010.79 1010.82 1010.88 1010.94 1010.95 1010.90 1010.79 1010.64 1010.49 1010.37 1010.33 1010.39 1010.53 1010.75 1010.99 1011.23 1011.41 1011.53 1011.55 1011.49 1011.36 1011.17 1010.95 1010.71 1010.48 1010.24 1010.03 1009.84 1009.68 1009.59 1009.56 1009.61 1009.74 1009.95 1010.20 1010.45
1013.44 1013.49 1013.59 1013.69 1013.74 1013.70 1013.53 1013.24 1012.85 1012.40 1011.97 1011.62 1011.36 1011.23 1011.20 1011.22 1011.26 1011.25 1011.17 1011.01 1010.81 1010.59 1010.40 1010.29 1010.30 1010.41 1010.61 1010.86 1011.12 1011.33 1011.47 1011.51 1011.45 1011.30 1011.08 1010.81 1010.52 1010.22 1009.94 1009.66 1009.42 1009.22 1009.08 1009.01 1009.02 1009.13 1009.31 1009.56 1009.83
1013.37 1013.61 1013.92 1014.22 1014.44 1014.51 1014.40 1014.10 1013.64 1013.09 1012.54 1012.05 1011.68 1011.46 1011.37 1011.36 1011.39 1011.38 1011.31 1011.15 1010.93 1010.69 1010.46 1010.31 1010.28 1010.36 1010.55 1010.81 1011.09 1011.33 1011.50 1011.56 1011.50 1011.34 1011.10 1010.79 1010.45 1010.10 1009.75 1009.41 1009.11 1008.84 1008.63 1008.50 1008.47 1008.53 1008.69 1008.92 1009.19
1013.31 1013.75 1014.27 1014.76 1015.14 1015.31 1015.23 1014.89 1014.34 1013.66 1012.95 1012.31 1011.81 1011.49 1011.34 1011.31 1011.33 1011.35 1011.31 1011.19 1010.99 1010.74 1010.52 1010.35 1010.30 1010.37 1010.56 1010.82 1011.11 1011.38 1011.57 1011.65 1011.62 1011.46 1011.20 1010.87 1010.49 1010.08 1009.67 1009.26 1008.87 1008.52 1008.24 1008.04 1007.94 1007.95 1008.07 1008.28 1008.56
1013.33 1013.97 1014.68 1015.36 1015.86 1016.10 1016.03 1015.64 1014.98 1014.15 1013.28 1012.49 1011.85 1011.42 1011.19 1011.13 1011.16 1011.21 1011.21 1011.13 1010.97 1010.76 1010.55 1010.39 1010.33 1010.39 1010.57 1010.83 1011.14 1011.42 1011.64 1011.75 1011.74 1011.60 1011.35 1011.00 1010.59 1010.13 1009.65 1009.16 1008.69 1008.25 1007.88 1007.59 1007.42 1007.37 1007.46 1007.66 1007.94
1013.48 1014.30 1015.18 1016.00 1016.60 1016.90 1016.81 1016.36 1015.60 1014.63 1013.61 1012.66 1011.89 1011.35 1011.05 1010.95 1010.97 1011.03 1011.07 1011.03 1010.92 1010.74 1010.56 1010.41 1010.35 1010.40 1010.57 1010.83 1011.13 1011.42 1011.66 1011.80 1011.82 1011.70 1011.46 1011.11 1010.68 1010.18 1009.64 1009.07 1008.52 1007.99 1007.52 1007.16 1006.91 1006.80 1006.85 1007.02 1007.31
1013.79 1014.74 1015.75 1016.66 1017.34 1017.66 1017.56 1017.06 1016.21 1015.14 1014.00 1012.94 1012.05 1011.42 1011.04 1010.88 1010.87 1010.94 1010.99 1010.98 1010.89 1010.75 1010.57 1010.43 1010.36 1010.40 1010.54 1010.78 1011.06 1011.35 1011.60 1011.76 1011.80 1011.70 1011.49 1011.15 1010.70 1010.18 1009.59 1008.96 1008.32 1007.71 1007.16 1006.71 1006.39 1006.22 1006.23 1006.39 1006.67
1014.21 1015.24 1016.31 1017.28 1017.99 1018.33 1018.23 1017.70 1016.82 1015.70 1014.50 1013.36 1012.40 1011.69 1011.24 1011.03 1010.98 1011.01 1011.06 1011.05 1010.97 1010.82 1010.65 1010.49 1010.40 1010.40 1010.50 1010.69 1010.94 1011.20 1011.43 1011.59 1011.65 1011.58 1011.38 1011.06 1010.63 1010.09 1009.47 1008.79 1008.09 1007.41 1006.79 1006.26 1005.88 1005.66 1005.62 1005.76 1006.03
1014.68 1015.72 1016.81 1017.78 1018.50 1018.84 1018.75 1018.24 1017.38 1016.27 1015.07 1013.93 1012.95 1012.20 1011.70 1011.44 1011.34 1011.33 1011.33 1011.29 1011.18 1011.02 1010.82 1010.63 1010.49 1010.43 1010.46 1010.58 1010.77 1010.98 1011.18 1011.32 1011.37 1011.32 1011.15 1010.85 1010.43 1009.90 1009.27 1008.58 1007.84 1007.11 1006.43 1005.85 1005.41 1005.15 1005.07 1005.18 1005.44
1015.10 1016.10 1017.14 1018.08 1018.77 1019.12 1019.07 1018.62 1017.83 1016.81 1015.69 1014.61 1013.66 1012.92 1012.41 1012.10 1011.94 1011.87 1011.81 1011.72 1011.57 1011.36 1011.11 1010.87 1010.66 1010.52 1010.47 1010.50 1010.59 1010.72 1010.85 1010.95 1010.99 1010.94 1010.79 1010.52 1010.13 1009.63 1009.03 1008.34 1007.61 1006.86 1006.15 1005.54 1005.06 1004.76 1004.64 1004.72 1004.95
1015.40 1016.31 1017.27 1018.13 1018.78 1019.14 1019.13 1018.78 1018.12 1017.25 1016.28 1015.32 1014.47 1013.78 1013.28 1012.95 1012.74 1012.60 1012.47 1012.31 1012.09 1011.82 1011.52 1011.21 1010.92 1010.69 1010.54 1010.45 1010.43 1010.46 1010.50 1010.54 1010.54 1010.48 1010.35 1010.12 1009.78 1009.34 1008.79 1008.14 1007.44 1006.72 1006.02 1005.39 1004.90 1004.56 1004.41 1004.45 1004.65
1015.55 1016.35 1017.18 1017.95 1018.56 1018.91 1018.97 1018.74 1018.24 1017.56 1016.78 1015.99 1015.27 1014.67 1014.20 1013.86 1013.61 1013.41 1013.21 1012.97 1012.69 1012.36 1011.99 1011.62 1011.25 1010.93 1010.67 1010.46 1010.32 1010.23 1010.17 1010.12 1010.08 1010.00 1009.88 1009.70 1009.42 1009.06 1008.59 1008.03 1007.39 1006.72 1006.06 1005.46 1004.96 1004.61 1004.43 1004.43 1004.59
Thickness
5837 5835 5832 5822 5805 5789 5789 5803 5815 5819 5826 5837 5841 5836 5827 5820 5814 5813 5832 5840 5838 5832 5826 5821 5816 5811 5807 5803 5800 5797 5795 5793 5790 5789 5787 5785 5783 5781 5779 5778 5776 5774 5772 5770 5768 5767 5765 5763 5761
5838 5835 5827 5814 5795 5777 5788 5810 5814 5822 5834 5841 5842 5838 5830 5826 5831 5830 5834 5837 5836 5831 5825 5821 5816 5811 5807 5803 5800 5797 5794 5792 5789 5787 5786 5784 5782 5780 5779 5777 5775 5773 5771 5769 5768 5766 5765 5763 5761
5838 5835 5819 5806 5792 5784 5796 5816 5821 5833 5842 5842 5836 5837 5832 5828 5833 5834 5838 5838 5834 5829 5824 5820 5815 5810 5806 5802 5798 5795 5793 5790 5788 5786 5784 5782 5781 5779 5777 5775 5773 5772 5770 5769 5767 5766 5764 5763 5761
5836 5824 5815 5799 5795 5803 5812 5824 5831 5833 5841 5845 5838 5830 5835 5842 5841 5841 5841 5837 5831 5826 5822 5818 5814 5809 5804 5800 5797 5794 5791 5789 5787 5785 5783 5781 5779 5777 5775 5774 5772 5770 5769 5768 5767 5765 5764 5762 5761
5831 5815 5799 5788 5796 5811 5824 5833 5837 5833 5836 5841 5838 5827 5828 5840 5846 5844 5841 5836 5830 5825 5821 5817 5812 5807 5803 5799 5796 5793 5791 5788 5786 5784 5781 5779 5777 5775 5774 5772 5770 5769 5768 5767 5765 5764 5763 5762 5760
5815 5804 5784 5781 5796 5816 5830 5841 5841 5838 5837 5841 5837 5827 5825 5838 5840 5840 5839 5835 5830 5825 5820 5815 5811 5806 5802 5798 5795 5792 5790 5787 5785 5783 5780 5778 5776 5774 5772 5771 5770 5768 5766 5765 5764 5763 5762 5761 5760
5807 5793 5786 5789 5794 5808 5831 5844 5841 5838 5836 5840 5842 5825 5825 5832 5838 5839 5837 5832 5827 5823 5818 5814 5810 5806 5802 5798 5794 5791 5789 5786 5784 5781 5779 5777 5775 5773 5772 5770 5769 5768 5766 5765 5763 5762 5761 5760 5759
5813 5794 5788 5786 5793 5807 5833 5843 5848 5844 5841 5852 5847 5827 5823 5834 5838 5835 5831 5826 5823 5819 5816 5812 5809 5805 5801 5797 5794 5791 5788 5785 5783 5780 5778 5776 5774 5772 5771 5770 5768 5767 5766 5764 5762 5761 5760 5759 5758
5814 5784 5777 5790 5799 5812 5833 5836 5846 5855 5848 5848 5850 5845 5845 5843 5836 5829 5823 5818 5816 5815 5813 5810 5807 5803 5800 5796 5793 5790 5787 5785 5782 5780 5778 5776 5773 5771 5769 5768 5767 5765 5764 5763 5762 5760 5759 5758 5757
5799 5777 5789 5808 5817 5822 5830 5833 5840 5842 5837 5838 5841 5844 5846 5839 5832 5824 5819 5815 5812 5811 5810 5808 5804 5801 5797 5794 5791 5789 5786 5784 5782 5780 5777 5775 5773 5770 5768 5766 5765 5764 5763 5762 5761 5760 5759 5758 5757
5799 5790 5804 5816 5825 5827 5827 5833 5841 5834 5827 5836 5837 5837 5837 5833 5828 5823 5819 5817 5814 5811 5806 5804 5800 5796 5793 5790 5787 5785 5783 5781 5779 5777 5775 5772 5770 5768 5766 5764 5763 5762 5761 5760 5760 5759 5759 5757 5756
5798 5803 5811 5819 5829 5827 5828 5833 5833 5833 5839 5852 5851 5845 5837 5830 5826 5822 5818 5814 5810 5804 5801 5798 5795 5791 5788 5785 5782 5780 5779 5777 5775 5773 5771 5768 5766 5764 5763 5762 5761 5759 5758 5758 5757 5757 5757 5757 5756
5799 5804 5815 5823 5825 5826 5828 5828 5830 5834 5846 5851 5847 5838 5832 5828 5824 5821 5817 5811 5806 5800 5796 5793 5789 5786 5782 5779 5776 5775 5774 5772 5770 5768 5766 5763 5762 5760 5759 5759 5758 5757 5756 5755 5754 5754 5754 5754 5754
5799 5804 5808 5815 5819 5826 5825 5826 5826 5832 5842 5841 5837 5831 5828 5824 5819 5815 5810 5805 5801 5797 5793 5790 5785 5781 5777 5773 5771 5770 5768 5767 5764 5763 5762 5760 5758 5757 5756 5755 5755 5754 5753 5752 5751 5750 5749 5748 5748
5798 5794 5801 5810 5813 5820 5822 5812 5817 5828 5834 5830 5828 5825 5821 5818 5815 5811 5807 5803 5799 5793 5789 5784 5780 5776 5772 5769 5767 5764 5761 5759 5757 5757 5756 5755 5754 5752 5751 5750 5751 5750 5749 5747 5746 5744 5741 5740 5740
5787 5779 5775 5793 5803 5812 5808 5791 5810 5822 5823 5817 5817 5816 5812 5809 5809 5807 5804 5799 5795 5789 5784 5780 5777 5773 5768 5765 5762 5760 5757 5754 5753 5752 5751 5750 5748 5746 5746 5745 5746 5746 5744 5743 5741 5739 5735 5734 5733
5759 5755 5761 5776 5795 5800 5795 5785 5799 5812 5813 5807 5806 5805 5802 5799 5798 5799 5799 5795 5791 5786 5780 5775 5772 5768 5765 5762 5759 5757 5754 5752 5750 5748 5747 5746 5744 5742 5742 5742 5742 5742 5740 5739 5739 5736 5732 5729 5728
5747 5751 5756 5763 5782 5785 5778 5776 5788 5798 5800 5796 5796 5794 5792 5790 5788 5791 5791 5789 5786 5781 5777 5772 5768 5765 5762 5758 5755 5752 5749 5748 5746 5745 5743 5742 5740 5739 5739 5739 5740 5739 5737 5736 5736 5734 5730 5728 5725
5753 5750 5750 5762 5778 5771 5765 5765 5773 5782 5783 5782 5781 5781 5781 5781 5782 5784 5783 5782 5779 5774 5770 5767 5763 5760 5755 5751 5747 5744 5742 5742 5740 5739 5738 5737 5735 5734 5734 5734 5734 5734 5733 5733 5733 5731 5727 5725 5722
5748 5745 5747 5758 5769 5764 5757 5755 5763 5768 5770 5771 5771 5772 5772 5771 5772 5774 5775 5775 5772 5768 5764 5760 5757 5753 5750 5746 5743 5740 5738 5736 5734 5732 5730 5729 5728 5727 5727 5727 5727 5727 5726 5727 5727 5725 5722 5721 5718
5745 5743 5746 5748 5754 5753 5751 5740 5746 5756 5761 5764 5765 5766 5766 5765 5764 5765 5766 5765 5764 5760 5758 5755 5751 5748 5744 5740 5736 5732 5729 5726 5724 5722 5721 5721 5720 5720 5719 5720 5720 5720 5719 5720 5720 5719 5716 5715 5714
5738 5753 5752 5746 5734 5723 5733 5713 5733 5741 5745 5750 5753 5755 5757 5759 5759 5759 5759 5758 5757 5755 5753 5749 5745 5741 5737 5734 5729 5724 5718 5714 5713 5712 5711 5711 5711 5710 5711 5711 5712 5712 5712 5713 5714 5714 5713 5712 5710
5748 5751 5743 5735 5727 5715 5717 5707 5715 5733 5735 5739 5745 5749 5751 5753 5753 5753 5754 5753 5751 5749 5745 5741 5738 5734 5731 5728 5724 5718 5713 5710 5707 5704 5702 5701 5701 5701 5701 5702 5703 5704 5706 5707 5708 5709 5709 5708 5707
5752 5738 5725 5712 5703 5693 5706 5702 5704 5718 5731 5737 5742 5745 5748 5749 5749 5749 5749 5747 5744 5741 5738 5735 5732 5729 5726 5723 5719 5714 5709 5705 5700 5697 5694 5693 5691 5691 5692 5693 5694 5696 5698 5700 5702 5703 5703 5703 5703
5738 5713 5688 5683 5675 5681 5700 5698 5702 5728 5736 5738 5740 5742 5745 5745 5744 5742 5741 5738 5736 5734 5732 5730 5727 5723 5721 5717 5713 5709 5704 5700 5696 5692 5688 5685 5683 5682 5682 5683 5684 5686 5689 5692 5694 5696 5697 5697 5697
5731 5713 5684 5673 5668 5676 5692 5694 5712 5731 5736 5738 5738 5737 5737 5736 5736 5735 5734 5732 5730 5730 5728 5724 5721 5717 5714 5710 5706 5702 5699 5694 5690 5686 5682 5679 5676 5675 5675 5674 5675 5678 5680 5683 5686 5688 5690 5691 5690
5723 5711 5707 5683 5679 5671 5681 5697 5713 5725 5724 5724 5725 5724 5722 5723 5724 5725 5725 5724 5722 5720 5718 5715 5712 5709 5706 5703 5699 5695 5692 5688 5685 5681 5676 5673 5670 5669 5668 5668 5669 5670 5672 5674 5677 5679 5681 5682 5683
5732 5711 5690 5678 5666 5662 5677 5683 5683 5695 5699 5703 5705 5706 5707 5709 5711 5711 5710 5709 5708 5706 5704 5702 5700 5697 5696 5694 5691 5689 5685 5682 5678 5674 5671 5667 5665 5663 5662 5661 5662 5663 5665 5667 5669 5671 5673 5673 5674
5719 5707 5687 5673 5670 5658 5655 5669 5687 5683 5685 5686 5688 5690 5692 5694 5694 5694 5693 5693 5693 5692 5691 5689 5687 5685 5684 5683 5681 5679 5677 5674 5671 5667 5665 5662 5659 5657 5655 5655 5655 5656 5657 5659 5661 5663 5664 5664 5665
5719 5710 5690 5678 5672 5660 5653 5660 5684 5679 5677 5677 5677 5679 5679 5679 5679 5679 5679 5679 5678 5676 5675 5673 5673 5672 5672 5672 5672 5670 5669 5666 5664 5661 5658 5655 5653 5651 5649 5648 5648 5648 5649 5651 5652 5654 5656 5656 5656